Location: ???
(60.6398°N, 46.9067°E)
Time: 19:43:36
(UTC+00:00)

Cosmos 332 Rocket - Pass Details

Date: 08 December 2019
Orbit: 683 x 703 km, 74.0° (Epoch: 17 January)

Event Time Altitude Azimuth Distance (km) Brightness Sun altitude
Rises 12:57:22 0° 326° (NW) 3,098 7.2 -7.7°
Reaches altitude 10° 12:59:43 10° 324° (NW) 2,174 6.4 -7.9°
Maximum altitude 13:04:33 65° 243° (WSW) 771 4.4 -8.4°
Drops below altitude 10° 13:09:21 10° 163° (SSE) 2,147 6.5 -8.9°
Sets 13:11:39 0° 160° (SSE) 3,056 7.3 -9.1°
